This demonstration page uses our WeatherBlox Daily Observations layout. Learn more.

Hourly Observations for August 3, 2016

Temp ( °F °C ) Dew Point ( °F °C ) Humidity (%) Winds ( mph kmh ) Pressure ( in mb ) Visibility ( mi km ) Precip ( " mm )
12:15 am 00:15 Clear 73 22.5 69 20.7 90 90 SE 6 9 30 1016 10 16.09344 0 0
12:35 am 00:35 Clear 73 22.5 69 20.7 90 90 SSE 7 11 30 1016 10 16.09344 0 0
12:55 am 00:55 Clear 72 22.2 69 20.6 91 91 SE 5 7 30 1016 10 16.09344 0 0
1:15 am 01:15 Clear 71 21.8 68 20.2 91 91 SE 6 9 30 1016 10 16.09344 0 0
1:35 am 01:35 Clear 71 21.5 68 20 91 91 ESE 5 7 29.97 1015 10 16.09344 0 0
1:55 am 01:55 Clear 70 21 67 19.7 92 92 Calm 29.97 1015 10 16.09344 0 0
2:15 am 02:15 Clear 69 20.8 67 19.6 93 93 Calm 29.97 1015 10 16.09344 0 0
2:35 am 02:35 Clear with Mist and Fog 69 20.3 67 19.4 95 95 Calm 29.97 1015 5 8.04672 0 0
2:55 am 02:55 Clear with Mist and Fog 68 20.2 67 19.2 94 94 ESE 3 6 29.97 1015 5 8.04672 0 0
3:15 am 03:15 Clear with Mist and Fog 69 20.3 67 19.4 95 95 NNE 3 6 29.97 1015 5 8.04672 0 0
3:35 am 03:35 Clear with Mist and Fog 68 20.2 67 19.5 96 96 NNE 3 6 29.97 1015 4 6.437376 0 0
3:55 am 03:55 Partly Cloudy with Mist and Fog 68 20.2 67 19.5 96 96 NE 5 7 29.97 1015 3 4.828032 0 0
4:15 am 04:15 Partly Cloudy with Mist and Fog 68 20.1 67 19.3 95 95 ENE 3 6 29.97 1015 3 4.828032 0 0
4:35 am 04:35 Clear with Mist and Fog 68 20.1 67 19.3 95 95 E 3 6 29.97 1015 4 6.437376 0 0
4:55 am 04:55 Clear with Mist and Fog 68 20 66 19.1 95 95 E 5 7 30 1016 3 4.828032 0 0
5:15 am 05:15 Partly Cloudy with Mist and Fog 69 20.3 67 19.5 95 95 E 5 7 29.97 1015 2.5 4.02336 0 0
5:35 am 05:35 Cloudy with Mist and Fog 69 20.8 68 20.1 96 96 ESE 7 11 29.94 1014 1 1.609344 0 0
5:55 am 05:55 Cloudy with Fog 70 21 69 20.3 96 96 ESE 6 9 29.94 1014 0.25 0.402336 0 0
6:15 am 06:15 Cloudy with Fog 70 21.1 69 20.5 96 96 E 6 9 29.94 1014 0.25 0.402336 0 0
6:35 am 06:35 Cloudy with Fog 70 21.2 69 20.5 96 96 ESE 7 11 29.94 1014 0.25 0.402336 0 0
6:55 am 06:55 Cloudy with Fog 71 21.5 69 20.8 96 96 ESE 9 15 29.94 1014 0.25 0.402336 0 0
7:15 am 07:15 Cloudy with Fog 71 21.6 70 21 96 96 ESE 9 15 29.94 1014 0 0 0 0
7:35 am 07:35 Cloudy with Fog 71 21.9 70 21.2 96 96 SE 8 13 29.94 1014 0 0 0 0
7:55 am 07:55 Cloudy with Fog 72 22.2 71 21.5 96 96 SE 12 19 29.94 1014 0.25 0.402336 0 0
8:15 am 08:15 Cloudy with Mist and Fog 72 22.3 71 21.7 96 96 SSE 14 22 29.94 1014 1 1.609344 0 0
8:35 am 08:35 Cloudy with Mist and Fog 73 22.5 71 21.7 95 95 SSE 10 17 29.94 1014 3 4.828032 0 0
8:55 am 08:55 Cloudy with Mist and Fog 73 22.8 72 22.1 96 96 SSE 10 17 29.94 1014 5 8.04672 0 0
9:15 am 09:15 Cloudy 74 23.3 73 22.6 96 96 SE 12 19 29.94 1014 7 11.265408 0 0
9:35 am 09:35 Mostly Cloudy 75 23.8 71 21.8 89 89 SSE 9 15 29.91 1013 10 16.09344 0 0
9:55 am 09:55 Cloudy 76 24.5 71 21.8 85 85 SSE 7 11 29.91 1013 10 16.09344 0 0
10:15 am 10:15 Mostly Cloudy 77 24.8 70 21.2 80 80 SSE 8 13 29.91 1013 10 16.09344 0 0
10:35 am 10:35 Mostly Cloudy 78 25.3 71 21.7 81 81 ESE 7 11 29.91 1013 10 16.09344 0 0
10:55 am 10:55 Partly Cloudy 79 26.1 71 21.4 75 75 SE 8 13 29.91 1013 10 16.09344 0 0
11:15 am 11:15 Partly Cloudy 80 26.9 71 21.5 72 72 SE 9 15 29.91 1013 10 16.09344 0 0
11:35 am 11:35 Partly Cloudy 82 28 71 21.6 68 68 SE 9 15 29.85 1011 10 16.09344 0 0
11:55 am 11:55 Partly Cloudy 83 28.4 71 21.6 67 67 SSE 10 17 29.85 1011 10 16.09344 0 0
12:15 pm 12:15 Partly Cloudy 85 29.5 69 20.8 60 60 SE 9 15 29.85 1011 10 16.09344 0 0
12:35 pm 12:35 Partly Cloudy 86 29.9 69 20.6 57 57 SE 9 15 29.85 1011 10 16.09344 0 0
12:55 pm 12:55 Sunny 87 30.7 68 19.9 53 53 SE 10 17 29.83 1010 10 16.09344 0 0
1:15 pm 13:15 Sunny 88 31.2 67 19.4 49 49 SE 12 19 29.83 1010 10 16.09344 0 0
1:35 pm 13:35 Sunny 89 31.4 67 19.7 50 50 SSE 15 24 29.83 1010 10 16.09344 0 0
1:55 pm 13:55 Sunny 90 32.1 67 19.4 47 47 SSE 12 19 29.8 1009 10 16.09344 0 0
2:15 pm 14:15 Sunny 90 32.3 66 18.9 45 45 SSE 14 22 29.8 1009 10 16.09344 0 0
2:35 pm 14:35 Sunny 91 32.6 64 17.9 42 42 S 15 24 29.8 1009 10 16.09344 0 0
2:55 pm 14:55 Sunny 90 32.4 64 17.9 42 42 SSE 14 22 29.8 1009 10 16.09344 0 0
3:15 pm 15:15 Sunny 91 32.7 65 18.2 42 42 SSE 15 24 29.8 1009 10 16.09344 0 0
3:35 pm 15:35 Sunny 91 32.6 64 18 42 42 S 12 19 29.77 1008 10 16.09344 0 0
3:55 pm 15:55 Sunny 92 33.2 65 18.6 42 42 SSE 15 24 29.77 1008 10 16.09344 0 0
4:15 pm 16:15 Sunny 91 33 65 18.5 42 42 S 12 19 29.77 1008 10 16.09344 0 0
4:35 pm 16:35 Sunny 92 33.3 64 17.9 40 40 SSE 13 20 29.77 1008 10 16.09344 0 0
4:55 pm 16:55 Sunny 92 33.5 66 18.8 42 42 SSE 13 20 29.74 1007 10 16.09344 0 0
5:15 pm 17:15 Sunny 92 33.5 65 18.6 41 41 SSE 10 17 29.74 1007 10 16.09344 0 0
5:35 pm 17:35 Sunny 92 33.5 66 18.7 41 41 SSE 12 19 29.74 1007 10 16.09344 0 0
5:55 pm 17:55 Sunny 92 33.4 66 19 43 43 SSE 12 19 29.74 1007 10 16.09344 0 0
6:15 pm 18:15 Sunny 92 33.1 67 19.2 44 44 SSE 10 17 29.74 1007 10 16.09344 0 0
6:35 pm 18:35 Sunny 91 32.9 67 19.6 45 45 SSE 8 13 29.74 1007 10 16.09344 0 0
6:55 pm 18:55 Sunny 91 32.6 67 19.7 47 47 SSE 9 15 29.71 1006 10 16.09344 0 0
7:15 pm 19:15 Sunny 90 32.3 69 20.3 49 49 SE 7 11 29.71 1006 10 16.09344 0 0
7:35 pm 19:35 Sunny 89 31.8 69 20.7 52 52 SE 8 13 29.71 1006 10 16.09344 0 0
7:55 pm 19:55 Sunny 88 31.1 69 20.8 54 54 SE 8 13 29.71 1006 10 16.09344 0 0
8:15 pm 20:15 Sunny 86 29.9 70 21.1 59 59 SE 7 11 29.71 1006 10 16.09344 0 0
8:35 pm 20:35 Sunny 84 28.7 70 21.3 64 64 SE 7 11 29.74 1007 10 16.09344 0 0
8:55 pm 20:55 Clear 82 27.6 72 22 72 72 SE 8 13 29.74 1007 10 16.09344 0 0
9:15 pm 21:15 Clear 81 27.4 71 21.8 72 72 SE 8 13 29.74 1007 10 16.09344 0 0
9:35 pm 21:35 Clear 80 26.6 71 21.7 75 75 SE 7 11 29.74 1007 10 16.09344 0 0
9:55 pm 21:55 Clear 78 25.8 71 21.7 78 78 SE 8 13 29.74 1007 10 16.09344 0 0
10:15 pm 22:15 Clear 78 25.8 71 21.5 77 77 SE 7 11 29.74 1007 10 16.09344 0 0
10:35 pm 22:35 Clear 78 25.7 71 21.5 78 78 SE 9 15 29.74 1007 10 16.09344 0 0
10:55 pm 22:55 Clear 78 25.5 71 21.5 79 79 SE 9 15 29.77 1008 10 16.09344 0 0
11:15 pm 23:15 Clear 77 25.1 71 21.5 81 81 SE 7 11 29.77 1008 10 16.09344 0 0
11:35 pm 23:35 Clear 76 24.6 70 21.3 82 82 SSE 6 9 29.77 1008 10 16.09344 0 0
11:55 pm 23:55 Clear 75 24 70 21.1 84 84 SSE 6 9 29.77 1008 10 16.09344 0 0

Powered by AerisWeather